Weather in Makadi Bay

Egypt     26°59′04″N   33°53′12″E
temp.,
°C
wind,
m/s
gust,
m/s
humid.,
%
clouds,
%
prec.,
mm/h
press.,
hPa
HPBL,
m
13 may, thu
thu1323:00+27nw915460 0.0 1008243
02:00+27nw814470 0.0 1008288
05:00+25nnw812600 0.0 1009431
08:00+25nnw911580 0.0 1010430
11:00+25n810670 0.0 1010250
14:00+25n79700 0.0 1008203
17:00+26nnw59650 0.0 1008193
20:00+27nw611500 0.0 1009180
14 may, fri
fri1423:00+28nw1015360 0.0 1009257
02:00+27nnw914430 0.0 1009332
05:00+26nnw813500 0.0 1009348
08:00+25nnw1013520 0.0 1011498
11:00+25n911640 0.0 1011249
14:00+25n810670 0.0 1009175
17:00+27nnw915610 0.0 1008194
20:00+28nw815480 0.0 1008193
15 may, sat
sat1523:00+28nw1318380 0.0 1008363
02:00+27nw1117420 0.0 1007458
05:00+26nnw1016470 0.0 1008513
08:00+26nnw1113460 0.0 1009346
11:00+25n1113630 0.0 1009258
14:00+26n1013630 0.0 1007232
17:00+28nnw1117550 0.0 1006207
20:00+29nw916380 0.0 1006199
16 may, sun
sun1623:00+29nw1218350 0.0 1006291
02:00+28nw1219370 0.0 1005401
05:00+27nnw1016420 0.0 1006407
08:00+27nnw1014430 0.0 1007325
11:00+26n1014570 0.0 1006249
14:00+27n915570 0.0 1004172
17:00+28nnw1017520 0.0 1004186
20:00+30nw914340 0.0 1004133
17 may, mon
mon1723:00+30nw1015350 0.0 1005163
02:00+29wnw812370 0.0 1005117
05:00+26n710600 0.0 1006167
08:00+25nnw811630 0.0 1008283
11:00+25n79700 0.0 1009175
14:00+26n710690 0.0 1006170
17:00+27nnw711620 0.0 1006135
20:00+29nw712460 0.0 1007126